Zurück zum Katalog

INTELSAT 601

AktivKommunikationGEO
NORAD 21765·PAYLOAD· XX

Gestartet Oct 29, 1991 von Guiana Space Centre

Loading…

TLE

AktuellSource: Space-Track

Epoche: Sep 13, 2026, 23:55 UTC

1 21765U 91075A   26256.99686484 -.00000043  00000-0  00000-0 0  9996
2 21765  13.4771  16.2644 0001774 274.3651  76.3106  0.99593694127250

Verfolge INTELSAT 601 in Echtzeit mit AllMySat

Download on the App Store